Year,Month,Day,Hour,Minute,Value (Times are PST for temperature in C)
2012,08,05,00,00,20.90
2012,08,05,00,01,20.80
2012,08,05,00,02,20.80
2012,08,05,00,03,20.80
2012,08,05,00,04,20.70
2012,08,05,00,05,20.70
2012,08,05,00,06,20.70
2012,08,05,00,07,20.70
2012,08,05,00,08,20.70
2012,08,05,00,09,20.60
2012,08,05,00,10,20.60
2012,08,05,00,11,20.60
2012,08,05,00,12,20.60
2012,08,05,00,13,20.60
2012,08,05,00,14,20.60
2012,08,05,00,15,20.60
2012,08,05,00,16,20.60
2012,08,05,00,17,20.60
2012,08,05,00,18,20.60
2012,08,05,00,19,20.50
2012,08,05,00,20,20.50
2012,08,05,00,21,20.50
2012,08,05,00,22,20.50
2012,08,05,00,23,20.50
2012,08,05,00,24,20.40
2012,08,05,00,25,20.40
2012,08,05,00,26,20.40
2012,08,05,00,27,20.40
2012,08,05,00,28,20.40
2012,08,05,00,29,20.40
2012,08,05,00,30,20.40
2012,08,05,00,31,20.30
2012,08,05,00,32,20.30
2012,08,05,00,33,20.30
2012,08,05,00,34,20.30
2012,08,05,00,35,20.30
2012,08,05,00,36,20.20
2012,08,05,00,37,20.20
2012,08,05,00,38,20.20
2012,08,05,00,39,20.20
2012,08,05,00,40,20.20
2012,08,05,00,41,20.10
2012,08,05,00,42,20.10
2012,08,05,00,43,20.10
2012,08,05,00,44,20.10
2012,08,05,00,45,20.00
2012,08,05,00,46,20.00
2012,08,05,00,47,20.00
2012,08,05,00,48,19.90
2012,08,05,00,49,19.90
2012,08,05,00,50,19.90
2012,08,05,00,51,19.90
2012,08,05,00,52,19.80
2012,08,05,00,53,19.80
2012,08,05,00,54,19.80
2012,08,05,00,55,19.80
2012,08,05,00,56,19.80
2012,08,05,00,57,19.70
2012,08,05,00,58,19.70
2012,08,05,00,59,19.70
2012,08,05,01,00,19.70
2012,08,05,01,01,19.70
2012,08,05,01,02,19.70
2012,08,05,01,03,19.70
2012,08,05,01,04,19.70
2012,08,05,01,05,19.60
2012,08,05,01,06,19.60
2012,08,05,01,07,19.60
2012,08,05,01,08,19.60
2012,08,05,01,09,19.50
2012,08,05,01,10,19.50
2012,08,05,01,11,19.50
2012,08,05,01,12,19.40
2012,08,05,01,13,19.40
2012,08,05,01,14,19.40
2012,08,05,01,15,19.40
2012,08,05,01,16,19.30
2012,08,05,01,17,19.30
2012,08,05,01,18,19.30
2012,08,05,01,19,19.30
2012,08,05,01,20,19.30
2012,08,05,01,21,19.30
2012,08,05,01,22,19.30
2012,08,05,01,23,19.20
2012,08,05,01,24,19.20
2012,08,05,01,25,19.20
2012,08,05,01,26,19.20
2012,08,05,01,27,19.10
2012,08,05,01,28,19.10
2012,08,05,01,29,19.10
2012,08,05,01,30,19.10
2012,08,05,01,31,19.10
2012,08,05,01,32,19.10
2012,08,05,01,33,19.00
2012,08,05,01,34,19.00
2012,08,05,01,35,19.00
2012,08,05,01,36,18.90
2012,08,05,01,37,18.90
2012,08,05,01,38,18.90
2012,08,05,01,39,18.90
2012,08,05,01,40,18.90
2012,08,05,01,41,18.90
2012,08,05,01,42,18.80
2012,08,05,01,43,18.80
2012,08,05,01,44,18.80
2012,08,05,01,45,18.80
2012,08,05,01,46,18.80
2012,08,05,01,47,18.80
2012,08,05,01,48,18.80
2012,08,05,01,49,18.70
2012,08,05,01,50,18.70
2012,08,05,01,51,18.70
2012,08,05,01,52,18.70
2012,08,05,01,53,18.70
2012,08,05,01,54,18.70
2012,08,05,01,55,18.60
2012,08,05,01,56,18.60
2012,08,05,01,57,18.60
2012,08,05,01,58,18.60
2012,08,05,01,59,18.60
2012,08,05,02,00,18.60
2012,08,05,02,01,18.60
2012,08,05,02,02,18.60
2012,08,05,02,03,18.60
2012,08,05,02,04,18.60
2012,08,05,02,05,18.60
2012,08,05,02,06,18.60
2012,08,05,02,07,18.60
2012,08,05,02,08,18.60
2012,08,05,02,09,18.60
2012,08,05,02,10,18.60
2012,08,05,02,11,18.60
2012,08,05,02,12,18.60
2012,08,05,02,13,18.60
2012,08,05,02,14,18.60
2012,08,05,02,15,18.60
2012,08,05,02,16,18.60
2012,08,05,02,17,18.60
2012,08,05,02,18,18.60
2012,08,05,02,19,18.60
2012,08,05,02,20,18.60
2012,08,05,02,21,18.60
2012,08,05,02,22,18.60
2012,08,05,02,23,18.60
2012,08,05,02,24,18.60
2012,08,05,02,25,18.50
2012,08,05,02,26,18.50
2012,08,05,02,27,18.50
2012,08,05,02,28,18.40
2012,08,05,02,29,18.40
2012,08,05,02,30,18.40
2012,08,05,02,31,18.40
2012,08,05,02,32,18.40
2012,08,05,02,33,18.40
2012,08,05,02,34,18.40
2012,08,05,02,35,18.40
2012,08,05,02,36,18.40
2012,08,05,02,37,18.40
2012,08,05,02,38,18.40
2012,08,05,02,39,18.50
2012,08,05,02,40,18.50
2012,08,05,02,41,18.50
2012,08,05,02,42,18.50
2012,08,05,02,43,18.50
2012,08,05,02,44,18.50
2012,08,05,02,45,18.50
2012,08,05,02,46,18.50
2012,08,05,02,47,18.60
2012,08,05,02,48,18.60
2012,08,05,02,49,18.70
2012,08,05,02,50,18.70
2012,08,05,02,51,18.70
2012,08,05,02,52,18.80
2012,08,05,02,53,18.80
2012,08,05,02,54,18.80
2012,08,05,02,55,18.80
2012,08,05,02,56,18.80
2012,08,05,02,57,18.80
2012,08,05,02,58,18.80
2012,08,05,02,59,18.80
2012,08,05,03,00,18.80
2012,08,05,03,01,18.80
2012,08,05,03,02,18.70
2012,08,05,03,03,18.70
2012,08,05,03,04,18.70
2012,08,05,03,05,18.70
2012,08,05,03,06,18.70
2012,08,05,03,07,18.60
2012,08,05,03,08,18.60
2012,08,05,03,09,18.60
2012,08,05,03,10,18.60
2012,08,05,03,11,18.70
2012,08,05,03,12,18.70
2012,08,05,03,13,18.70
2012,08,05,03,14,18.70
2012,08,05,03,15,18.70
2012,08,05,03,16,18.70
2012,08,05,03,17,18.70
2012,08,05,03,18,18.70
2012,08,05,03,19,18.70
2012,08,05,03,20,18.70
2012,08,05,03,21,18.80
2012,08,05,03,22,18.80
2012,08,05,03,23,18.80
2012,08,05,03,24,18.80
2012,08,05,03,25,18.70
2012,08,05,03,26,18.70
2012,08,05,03,27,18.70
2012,08,05,03,28,18.70
2012,08,05,03,29,18.70
2012,08,05,03,30,18.70
2012,08,05,03,31,18.70
2012,08,05,03,32,18.70
2012,08,05,03,33,18.60
2012,08,05,03,34,18.60
2012,08,05,03,35,18.60
2012,08,05,03,36,18.60
2012,08,05,03,37,18.60
2012,08,05,03,38,18.60
2012,08,05,03,39,18.60
2012,08,05,03,40,18.60
2012,08,05,03,41,18.60
2012,08,05,03,42,18.60
2012,08,05,03,43,18.60
2012,08,05,03,44,18.50
2012,08,05,03,45,18.50
2012,08,05,03,46,18.50
2012,08,05,03,47,18.50
2012,08,05,03,48,18.50
2012,08,05,03,49,18.50
2012,08,05,03,50,18.50
2012,08,05,03,51,18.50
2012,08,05,03,52,18.50
2012,08,05,03,53,18.50
2012,08,05,03,54,18.50
2012,08,05,03,55,18.50
2012,08,05,03,56,18.50
2012,08,05,03,57,18.50
2012,08,05,03,58,18.50
2012,08,05,03,59,18.50
2012,08,05,04,00,18.50
2012,08,05,04,01,18.50
2012,08,05,04,02,18.50
2012,08,05,04,03,18.50
2012,08,05,04,04,18.50
2012,08,05,04,05,18.50
2012,08,05,04,06,18.50
2012,08,05,04,07,18.40
2012,08,05,04,08,18.40
2012,08,05,04,09,18.40
2012,08,05,04,10,18.40
2012,08,05,04,11,18.40
2012,08,05,04,12,18.30
2012,08,05,04,13,18.40
2012,08,05,04,14,18.30
2012,08,05,04,15,18.30
2012,08,05,04,16,18.30
2012,08,05,04,17,18.30
2012,08,05,04,18,18.30
2012,08,05,04,19,18.20
2012,08,05,04,20,18.20
2012,08,05,04,21,18.20
2012,08,05,04,22,18.10
2012,08,05,04,23,18.10
2012,08,05,04,24,18.10
2012,08,05,04,25,18.10
2012,08,05,04,26,18.10
2012,08,05,04,27,18.10
2012,08,05,04,28,18.00
2012,08,05,04,29,18.00
2012,08,05,04,30,17.90
2012,08,05,04,31,17.90
2012,08,05,04,32,17.90
2012,08,05,04,33,17.90
2012,08,05,04,34,17.80
2012,08,05,04,35,17.80
2012,08,05,04,36,17.80
2012,08,05,04,37,17.80
2012,08,05,04,38,17.80
2012,08,05,04,39,17.80
2012,08,05,04,40,17.70
2012,08,05,04,41,17.70
2012,08,05,04,42,17.70
2012,08,05,04,43,17.70
2012,08,05,04,44,17.60
2012,08,05,04,45,17.60
2012,08,05,04,46,17.60
2012,08,05,04,47,17.50
2012,08,05,04,48,17.50
2012,08,05,04,49,17.40
2012,08,05,04,50,17.40
2012,08,05,04,51,17.40
2012,08,05,04,52,17.40
2012,08,05,04,53,17.40
2012,08,05,04,54,17.40
2012,08,05,04,55,17.40
2012,08,05,04,56,17.40
2012,08,05,04,57,17.30
2012,08,05,04,58,17.30
2012,08,05,04,59,17.30
2012,08,05,05,00,17.30
2012,08,05,05,01,17.30
2012,08,05,05,02,17.30
2012,08,05,05,03,17.30
2012,08,05,05,04,17.20
2012,08,05,05,05,17.20
2012,08,05,05,06,17.20
2012,08,05,05,07,17.20
2012,08,05,05,08,17.20
2012,08,05,05,09,17.20
2012,08,05,05,10,17.10
2012,08,05,05,11,17.10
2012,08,05,05,12,17.10
2012,08,05,05,13,17.10
2012,08,05,05,14,17.10
2012,08,05,05,15,17.10
2012,08,05,05,16,17.00
2012,08,05,05,17,17.00
2012,08,05,05,18,17.00
2012,08,05,05,19,16.90
2012,08,05,05,20,16.90
2012,08,05,05,21,16.90
2012,08,05,05,22,16.90
2012,08,05,05,23,16.90
2012,08,05,05,24,16.90
2012,08,05,05,25,16.90
2012,08,05,05,26,16.80
2012,08,05,05,27,16.80
2012,08,05,05,28,16.80
2012,08,05,05,29,16.80
2012,08,05,05,30,16.80
2012,08,05,05,31,16.80
2012,08,05,05,32,16.80
2012,08,05,05,33,16.80
2012,08,05,05,34,16.70
2012,08,05,05,35,16.70
2012,08,05,05,36,16.70
2012,08,05,05,37,16.70
2012,08,05,05,38,16.70
2012,08,05,05,39,16.70
2012,08,05,05,40,16.70
2012,08,05,05,41,16.60
2012,08,05,05,42,16.60
2012,08,05,05,43,16.60
2012,08,05,05,44,16.60
2012,08,05,05,45,16.60
2012,08,05,05,46,16.50
2012,08,05,05,47,16.50
2012,08,05,05,48,16.50
2012,08,05,05,49,16.50
2012,08,05,05,50,16.40
2012,08,05,05,51,16.40
2012,08,05,05,52,16.50
2012,08,05,05,53,16.40
2012,08,05,05,54,16.40
2012,08,05,05,55,16.40
2012,08,05,05,56,16.40
2012,08,05,05,57,16.40
2012,08,05,05,58,16.40
2012,08,05,05,59,16.40
2012,08,05,06,00,16.40
2012,08,05,06,01,16.40
2012,08,05,06,02,16.40
2012,08,05,06,03,16.40
2012,08,05,06,04,16.40
2012,08,05,06,05,16.40
2012,08,05,06,06,16.40
2012,08,05,06,07,16.40
2012,08,05,06,08,16.40
2012,08,05,06,09,16.40
2012,08,05,06,10,16.30
2012,08,05,06,11,16.30
2012,08,05,06,12,16.30
2012,08,05,06,13,16.30
2012,08,05,06,14,16.30
2012,08,05,06,15,16.30
2012,08,05,06,16,16.30
2012,08,05,06,17,16.30
2012,08,05,06,18,16.30
2012,08,05,06,19,16.30
2012,08,05,06,20,16.30
2012,08,05,06,21,16.30
2012,08,05,06,22,16.30
2012,08,05,06,23,16.40
2012,08,05,06,24,16.40
2012,08,05,06,25,16.40
2012,08,05,06,26,16.40
2012,08,05,06,27,16.40
2012,08,05,06,28,16.50
2012,08,05,06,29,16.50
2012,08,05,06,30,16.50
2012,08,05,06,31,16.60
2012,08,05,06,32,16.60
2012,08,05,06,33,16.60
2012,08,05,06,34,16.60
2012,08,05,06,35,16.60
2012,08,05,06,36,16.70
2012,08,05,06,37,16.70
2012,08,05,06,38,16.70
2012,08,05,06,39,16.70
2012,08,05,06,40,16.70
2012,08,05,06,41,16.70
2012,08,05,06,42,16.70
2012,08,05,06,43,16.80
2012,08,05,06,44,16.80
2012,08,05,06,45,16.80
2012,08,05,06,46,16.80
2012,08,05,06,47,16.80
2012,08,05,06,48,16.80
2012,08,05,06,49,16.80
2012,08,05,06,50,16.80
2012,08,05,06,51,16.80
2012,08,05,06,52,16.80
2012,08,05,06,53,16.90
2012,08,05,06,54,17.00
2012,08,05,06,55,17.00
2012,08,05,06,56,17.10
2012,08,05,06,57,17.10
2012,08,05,06,58,17.10
2012,08,05,06,59,17.10
2012,08,05,07,00,17.20
2012,08,05,07,01,17.20
2012,08,05,07,02,17.30
2012,08,05,07,03,17.30
2012,08,05,07,04,17.40
2012,08,05,07,05,17.50
2012,08,05,07,06,17.50
2012,08,05,07,07,17.60
2012,08,05,07,08,17.60
2012,08,05,07,09,17.60
2012,08,05,07,10,17.60
2012,08,05,07,11,17.70
2012,08,05,07,12,17.70
2012,08,05,07,13,17.70
2012,08,05,07,14,17.70
2012,08,05,07,15,17.70
2012,08,05,07,16,17.80
2012,08,05,07,17,17.90
2012,08,05,07,18,17.90
2012,08,05,07,19,17.90
2012,08,05,07,20,18.00
2012,08,05,07,21,18.00
2012,08,05,07,22,18.00
2012,08,05,07,23,18.10
2012,08,05,07,24,18.20
2012,08,05,07,25,18.30
2012,08,05,07,26,18.30
2012,08,05,07,27,18.40
2012,08,05,07,28,18.50
2012,08,05,07,29,18.60
2012,08,05,07,30,18.70
2012,08,05,07,31,18.70
2012,08,05,07,32,18.80
2012,08,05,07,33,18.90
2012,08,05,07,34,18.90
2012,08,05,07,35,19.00
2012,08,05,07,36,19.10
2012,08,05,07,37,19.10
2012,08,05,07,38,19.20
2012,08,05,07,39,19.20
2012,08,05,07,40,19.20
2012,08,05,07,41,19.20
2012,08,05,07,42,19.20
2012,08,05,07,43,19.30
2012,08,05,07,44,19.30
2012,08,05,07,45,19.30
2012,08,05,07,46,19.30
2012,08,05,07,47,19.30
2012,08,05,07,48,19.30
2012,08,05,07,49,19.30
2012,08,05,07,50,19.30
2012,08,05,07,51,19.30
2012,08,05,07,52,19.20
2012,08,05,07,53,19.20
2012,08,05,07,54,19.20
2012,08,05,07,55,19.20
2012,08,05,07,56,19.20
2012,08,05,07,57,19.20
2012,08,05,07,58,19.30
2012,08,05,07,59,19.30
2012,08,05,08,00,19.40
2012,08,05,08,01,19.50
2012,08,05,08,02,19.70
2012,08,05,08,03,19.80
2012,08,05,08,04,19.80
2012,08,05,08,05,19.90
2012,08,05,08,06,20.00
2012,08,05,08,07,20.00
2012,08,05,08,08,20.10
2012,08,05,08,09,20.00
2012,08,05,08,10,20.00
2012,08,05,08,11,20.00
2012,08,05,08,12,20.00
2012,08,05,08,13,20.00
2012,08,05,08,14,20.00
2012,08,05,08,15,20.10
2012,08,05,08,16,20.10
2012,08,05,08,17,20.20
2012,08,05,08,18,20.30
2012,08,05,08,19,20.40
2012,08,05,08,20,20.50
2012,08,05,08,21,20.60
2012,08,05,08,22,20.70
2012,08,05,08,23,20.80
2012,08,05,08,24,21.00
2012,08,05,08,25,21.10
2012,08,05,08,26,21.30
2012,08,05,08,27,21.40
2012,08,05,08,28,21.50
2012,08,05,08,29,21.60
2012,08,05,08,30,21.70
2012,08,05,08,31,21.80
2012,08,05,08,32,21.90
2012,08,05,08,33,22.00
2012,08,05,08,34,22.10
2012,08,05,08,35,22.20
2012,08,05,08,36,22.20
2012,08,05,08,37,22.30
2012,08,05,08,38,22.40
2012,08,05,08,39,22.50
2012,08,05,08,40,22.50
2012,08,05,08,41,22.60
2012,08,05,08,42,22.70
2012,08,05,08,43,22.70
2012,08,05,08,44,22.80
2012,08,05,08,45,22.80
2012,08,05,08,46,22.80
2012,08,05,08,47,22.90
2012,08,05,08,48,22.90
2012,08,05,08,49,22.90
2012,08,05,08,50,23.00
2012,08,05,08,51,23.00
2012,08,05,08,52,23.00
2012,08,05,08,53,22.90
2012,08,05,08,54,22.90
2012,08,05,08,55,22.90
2012,08,05,08,56,22.80
2012,08,05,08,57,22.80
2012,08,05,08,58,22.80
2012,08,05,08,59,22.80
2012,08,05,09,00,22.80
2012,08,05,09,01,22.80
2012,08,05,09,02,22.80
2012,08,05,09,03,22.80
2012,08,05,09,04,22.80
2012,08,05,09,05,22.80
2012,08,05,09,06,22.70
2012,08,05,09,07,22.70
2012,08,05,09,08,22.70
2012,08,05,09,09,22.80
2012,08,05,09,10,22.80
2012,08,05,09,11,22.90
2012,08,05,09,12,22.90
2012,08,05,09,13,22.80
2012,08,05,09,14,22.80
2012,08,05,09,15,22.80
2012,08,05,09,16,22.80
2012,08,05,09,17,22.80
2012,08,05,09,18,22.90
2012,08,05,09,19,23.00
2012,08,05,09,20,23.10
2012,08,05,09,21,23.10
2012,08,05,09,22,23.20
2012,08,05,09,23,23.30
2012,08,05,09,24,23.30
2012,08,05,09,25,23.30
2012,08,05,09,26,23.40
2012,08,05,09,27,23.40
2012,08,05,09,28,23.40
2012,08,05,09,29,23.40
2012,08,05,09,30,23.40
2012,08,05,09,31,23.40
2012,08,05,09,32,23.40
2012,08,05,09,33,23.30
2012,08,05,09,34,23.30
2012,08,05,09,35,23.30
2012,08,05,09,36,23.30
2012,08,05,09,37,23.20
2012,08,05,09,38,23.20
2012,08,05,09,39,23.30
2012,08,05,09,40,23.30
2012,08,05,09,41,23.30
2012,08,05,09,42,23.40
2012,08,05,09,43,23.40
2012,08,05,09,44,23.40
2012,08,05,09,45,23.40
2012,08,05,09,46,23.40
2012,08,05,09,47,23.50
2012,08,05,09,48,23.50
2012,08,05,09,49,23.70
2012,08,05,09,50,23.80
2012,08,05,09,51,23.90
2012,08,05,09,52,24.00
2012,08,05,09,53,24.10
2012,08,05,09,54,24.20
2012,08,05,09,55,24.30
2012,08,05,09,56,24.40
2012,08,05,09,57,24.50
2012,08,05,09,58,24.60
2012,08,05,09,59,24.60
2012,08,05,10,00,24.60
2012,08,05,10,01,24.60
2012,08,05,10,02,24.60
2012,08,05,10,03,24.60
2012,08,05,10,04,24.70
2012,08,05,10,05,24.70
2012,08,05,10,06,24.70
2012,08,05,10,07,24.80
2012,08,05,10,08,24.80
2012,08,05,10,09,24.80
2012,08,05,10,10,24.80
2012,08,05,10,11,24.80
2012,08,05,10,12,24.80
2012,08,05,10,13,24.80
2012,08,05,10,14,24.80
2012,08,05,10,15,24.80
2012,08,05,10,16,24.80
2012,08,05,10,17,24.90
2012,08,05,10,18,24.90
2012,08,05,10,19,24.90
2012,08,05,10,20,24.90
2012,08,05,10,21,24.90
2012,08,05,10,22,25.00
2012,08,05,10,23,24.90
2012,08,05,10,24,24.90
2012,08,05,10,25,24.90
2012,08,05,10,26,24.90
2012,08,05,10,27,24.90
2012,08,05,10,28,24.80
2012,08,05,10,29,24.80
2012,08,05,10,30,24.80
2012,08,05,10,31,24.90
2012,08,05,10,32,24.90
2012,08,05,10,33,24.80
2012,08,05,10,34,24.80
2012,08,05,10,35,24.80
2012,08,05,10,36,24.80
2012,08,05,10,37,24.80
2012,08,05,10,38,24.70
2012,08,05,10,39,24.70
2012,08,05,10,40,24.80
2012,08,05,10,41,24.80
2012,08,05,10,42,24.80
2012,08,05,10,43,24.90
2012,08,05,10,44,24.90
2012,08,05,10,45,24.80
2012,08,05,10,46,24.90
2012,08,05,10,47,25.00
2012,08,05,10,48,25.00
2012,08,05,10,49,25.10
2012,08,05,10,50,25.10
2012,08,05,10,51,25.20
2012,08,05,10,52,25.20
2012,08,05,10,53,25.20
2012,08,05,10,54,25.20
2012,08,05,10,55,25.10
2012,08,05,10,56,25.10
2012,08,05,10,57,25.00
2012,08,05,10,58,25.00
2012,08,05,10,59,24.90
2012,08,05,11,00,24.80
2012,08,05,11,01,24.80
2012,08,05,11,02,24.70
2012,08,05,11,03,24.60
2012,08,05,11,04,24.50
2012,08,05,11,05,24.40
2012,08,05,11,06,24.40
2012,08,05,11,07,24.30
2012,08,05,11,08,24.30
2012,08,05,11,09,24.30
2012,08,05,11,10,24.30
2012,08,05,11,11,24.30
2012,08,05,11,12,24.40
2012,08,05,11,13,24.40
2012,08,05,11,14,24.40
2012,08,05,11,15,24.40
2012,08,05,11,16,24.40
2012,08,05,11,17,24.40
2012,08,05,11,18,24.40
2012,08,05,11,19,24.40
2012,08,05,11,20,24.30
2012,08,05,11,21,24.10
2012,08,05,11,22,24.00
2012,08,05,11,23,23.80
2012,08,05,11,24,23.80
2012,08,05,11,25,23.70
2012,08,05,11,26,23.50
2012,08,05,11,27,23.40
2012,08,05,11,28,23.30
2012,08,05,11,29,23.30
2012,08,05,11,30,23.20
2012,08,05,11,31,23.10
2012,08,05,11,32,23.00
2012,08,05,11,33,22.90
2012,08,05,11,34,22.90
2012,08,05,11,35,22.90
2012,08,05,11,36,22.90
2012,08,05,11,37,22.80
2012,08,05,11,38,22.90
2012,08,05,11,39,22.90
2012,08,05,11,40,22.90
2012,08,05,11,41,22.90
2012,08,05,11,42,23.00
2012,08,05,11,43,23.10
2012,08,05,11,44,23.10
2012,08,05,11,45,23.20
2012,08,05,11,46,23.20
2012,08,05,11,47,23.20
2012,08,05,11,48,23.30
2012,08,05,11,49,23.40
2012,08,05,11,50,23.50
2012,08,05,11,51,23.60
2012,08,05,11,52,23.70
2012,08,05,11,53,23.80
2012,08,05,11,54,24.00
2012,08,05,11,55,24.20
2012,08,05,11,56,24.30
2012,08,05,11,57,24.40
2012,08,05,11,58,24.50
2012,08,05,11,59,24.70
2012,08,05,12,00,24.80
2012,08,05,12,01,24.90
2012,08,05,12,02,24.90
2012,08,05,12,03,25.00
2012,08,05,12,04,25.10
2012,08,05,12,05,25.10
2012,08,05,12,06,25.20
2012,08,05,12,07,25.20
2012,08,05,12,08,25.30
2012,08,05,12,09,25.30
2012,08,05,12,10,25.10
2012,08,05,12,11,25.00
2012,08,05,12,12,24.80
2012,08,05,12,13,24.60
2012,08,05,12,14,24.50
2012,08,05,12,15,24.30
2012,08,05,12,16,24.20
2012,08,05,12,17,24.20
2012,08,05,12,18,24.10
2012,08,05,12,19,24.10
2012,08,05,12,20,24.10
2012,08,05,12,21,24.10
2012,08,05,12,22,24.10
2012,08,05,12,23,24.00
2012,08,05,12,24,23.90
2012,08,05,12,25,23.90
2012,08,05,12,26,23.80
2012,08,05,12,27,23.80
2012,08,05,12,28,23.80
2012,08,05,12,29,23.90
2012,08,05,12,30,24.10
2012,08,05,12,31,24.20
2012,08,05,12,32,24.30
2012,08,05,12,33,24.30
2012,08,05,12,34,24.40
2012,08,05,12,35,24.40
2012,08,05,12,36,24.40
2012,08,05,12,37,24.30
2012,08,05,12,38,24.20
2012,08,05,12,39,24.30
2012,08,05,12,40,24.40
2012,08,05,12,41,24.50
2012,08,05,12,42,24.60
2012,08,05,12,43,24.70
2012,08,05,12,44,24.70
2012,08,05,12,45,24.80
2012,08,05,12,46,24.80
2012,08,05,12,47,24.90
2012,08,05,12,48,25.00
2012,08,05,12,49,25.10
2012,08,05,12,50,25.10
2012,08,05,12,51,25.10
2012,08,05,12,52,25.20
2012,08,05,12,53,25.30
2012,08,05,12,54,25.30
2012,08,05,12,55,25.30
2012,08,05,12,56,25.30
2012,08,05,12,57,25.20
2012,08,05,12,58,25.20
2012,08,05,12,59,25.20
2012,08,05,13,00,25.30
2012,08,05,13,01,25.40
2012,08,05,13,02,25.60
2012,08,05,13,03,25.70
2012,08,05,13,04,25.80
2012,08,05,13,05,25.90
2012,08,05,13,06,25.90
2012,08,05,13,07,25.80
2012,08,05,13,08,25.80
2012,08,05,13,09,25.80
2012,08,05,13,10,25.80
2012,08,05,13,11,25.90
2012,08,05,13,12,25.90
2012,08,05,13,13,26.00
2012,08,05,13,14,26.10
2012,08,05,13,15,26.20
2012,08,05,13,16,26.30
2012,08,05,13,17,26.30
2012,08,05,13,18,26.40
2012,08,05,13,19,26.50
2012,08,05,13,20,26.70
2012,08,05,13,21,26.70
2012,08,05,13,22,26.80
2012,08,05,13,23,26.70
2012,08,05,13,24,26.50
2012,08,05,13,25,26.50
2012,08,05,13,26,26.40
2012,08,05,13,27,26.30
2012,08,05,13,28,26.20
2012,08,05,13,29,26.20
2012,08,05,13,30,26.20
2012,08,05,13,31,26.20
2012,08,05,13,32,26.30
2012,08,05,13,33,26.30
2012,08,05,13,34,26.30
2012,08,05,13,35,26.20
2012,08,05,13,36,26.20
2012,08,05,13,37,26.20
2012,08,05,13,38,26.10
2012,08,05,13,39,26.00
2012,08,05,13,40,25.90
2012,08,05,13,41,25.90
2012,08,05,13,42,25.90
2012,08,05,13,43,25.90
2012,08,05,13,44,25.90
2012,08,05,13,45,25.90
2012,08,05,13,46,25.90
2012,08,05,13,47,25.90
2012,08,05,13,48,25.80
2012,08,05,13,49,25.80
2012,08,05,13,50,25.80
2012,08,05,13,51,25.80
2012,08,05,13,52,25.90
2012,08,05,13,53,25.90
2012,08,05,13,54,26.00
2012,08,05,13,55,26.10
2012,08,05,13,56,26.10
2012,08,05,13,57,26.10
2012,08,05,13,58,26.20
2012,08,05,13,59,26.20
2012,08,05,14,00,26.10
2012,08,05,14,01,26.00
2012,08,05,14,02,26.00
2012,08,05,14,03,25.90
2012,08,05,14,04,25.90
2012,08,05,14,05,25.90
2012,08,05,14,06,26.00
2012,08,05,14,07,26.00
2012,08,05,14,08,26.00
2012,08,05,14,09,25.90
2012,08,05,14,10,25.90
2012,08,05,14,11,25.90
2012,08,05,14,12,25.90
2012,08,05,14,13,26.00
2012,08,05,14,14,26.10
2012,08,05,14,15,26.20
2012,08,05,14,16,26.20
2012,08,05,14,17,26.20
2012,08,05,14,18,26.20
2012,08,05,14,19,26.20
2012,08,05,14,20,26.20
2012,08,05,14,21,26.20
2012,08,05,14,22,26.20
2012,08,05,14,23,26.30
2012,08,05,14,24,26.40
2012,08,05,14,25,26.50
2012,08,05,14,26,26.50
2012,08,05,14,27,26.50
2012,08,05,14,28,26.50
2012,08,05,14,29,26.50
2012,08,05,14,30,26.60
2012,08,05,14,31,26.70
2012,08,05,14,32,26.80
2012,08,05,14,33,26.90
2012,08,05,14,34,27.00
2012,08,05,14,35,27.10
2012,08,05,14,36,27.10
2012,08,05,14,37,27.00
2012,08,05,14,38,26.90
2012,08,05,14,39,26.70
2012,08,05,14,40,26.60
2012,08,05,14,41,26.60
2012,08,05,14,42,26.50
2012,08,05,14,43,26.40
2012,08,05,14,44,26.40
2012,08,05,14,45,26.40
2012,08,05,14,46,26.40
2012,08,05,14,47,26.40
2012,08,05,14,48,26.50
2012,08,05,14,49,26.50
2012,08,05,14,50,26.50
2012,08,05,14,51,26.50
2012,08,05,14,52,26.50
2012,08,05,14,53,26.50
2012,08,05,14,54,26.60
2012,08,05,14,55,26.70
2012,08,05,14,56,26.70
2012,08,05,14,57,26.80
2012,08,05,14,58,26.80
2012,08,05,14,59,26.80
2012,08,05,15,00,26.90
2012,08,05,15,01,27.00
2012,08,05,15,02,27.00
2012,08,05,15,03,27.00
2012,08,05,15,04,27.00
2012,08,05,15,05,27.10
2012,08,05,15,06,27.20
2012,08,05,15,07,27.20
2012,08,05,15,08,27.30
2012,08,05,15,09,27.30
2012,08,05,15,10,27.30
2012,08,05,15,11,27.30
2012,08,05,15,12,27.40
2012,08,05,15,13,27.50
2012,08,05,15,14,27.60
2012,08,05,15,15,27.60
2012,08,05,15,16,27.70
2012,08,05,15,17,27.60
2012,08,05,15,18,27.60
2012,08,05,15,19,27.70
2012,08,05,15,20,27.70
2012,08,05,15,21,27.60
2012,08,05,15,22,27.60
2012,08,05,15,23,27.60
2012,08,05,15,24,27.60
2012,08,05,15,25,27.60
2012,08,05,15,26,27.60
2012,08,05,15,27,27.60
2012,08,05,15,28,27.50
2012,08,05,15,29,27.40
2012,08,05,15,30,27.40
2012,08,05,15,31,27.30
2012,08,05,15,32,27.30
2012,08,05,15,33,27.30
2012,08,05,15,34,27.30
2012,08,05,15,35,27.30
2012,08,05,15,36,27.30
2012,08,05,15,37,27.30
2012,08,05,15,38,27.40
2012,08,05,15,39,27.50
2012,08,05,15,40,27.50
2012,08,05,15,41,27.50
2012,08,05,15,42,27.60
2012,08,05,15,43,27.60
2012,08,05,15,44,27.70
2012,08,05,15,45,27.70
2012,08,05,15,46,27.70
2012,08,05,15,47,27.80
2012,08,05,15,48,27.70
2012,08,05,15,49,27.70
2012,08,05,15,50,27.80
2012,08,05,15,51,27.80
2012,08,05,15,52,27.80
2012,08,05,15,53,27.80
2012,08,05,15,54,27.90
2012,08,05,15,55,28.00
2012,08,05,15,56,28.10
2012,08,05,15,57,28.10
2012,08,05,15,58,28.10
2012,08,05,15,59,28.20
2012,08,05,16,00,28.20
2012,08,05,16,01,28.30
2012,08,05,16,02,28.20
2012,08,05,16,03,28.30
2012,08,05,16,04,28.30
2012,08,05,16,05,28.30
2012,08,05,16,06,28.30
2012,08,05,16,07,28.30
2012,08,05,16,08,28.30
2012,08,05,16,09,28.30
2012,08,05,16,10,28.30
2012,08,05,16,11,28.30
2012,08,05,16,12,28.40
2012,08,05,16,13,28.40
2012,08,05,16,14,28.40
2012,08,05,16,15,28.40
2012,08,05,16,16,28.40
2012,08,05,16,17,28.30
2012,08,05,16,18,28.30
2012,08,05,16,19,28.30
2012,08,05,16,20,28.40
2012,08,05,16,21,28.40
2012,08,05,16,22,28.40
2012,08,05,16,23,28.50
2012,08,05,16,24,28.50
2012,08,05,16,25,28.60
2012,08,05,16,26,28.70
2012,08,05,16,27,28.80
2012,08,05,16,28,28.90
2012,08,05,16,29,29.00
2012,08,05,16,30,29.10
2012,08,05,16,31,29.20
2012,08,05,16,32,29.30
2012,08,05,16,33,29.30
2012,08,05,16,34,29.30
2012,08,05,16,35,29.30
2012,08,05,16,36,29.30
2012,08,05,16,37,29.30
2012,08,05,16,38,29.30
2012,08,05,16,39,29.40
2012,08,05,16,40,29.40
2012,08,05,16,41,29.40
2012,08,05,16,42,29.40
2012,08,05,16,43,29.40
2012,08,05,16,44,29.50
2012,08,05,16,45,29.60
2012,08,05,16,46,29.60
2012,08,05,16,47,29.70
2012,08,05,16,48,29.70
2012,08,05,16,49,29.70
2012,08,05,16,50,29.60
2012,08,05,16,51,29.60
2012,08,05,16,52,29.60
2012,08,05,16,53,29.60
2012,08,05,16,54,29.60
2012,08,05,16,55,29.50
2012,08,05,16,56,29.50
2012,08,05,16,57,29.50
2012,08,05,16,58,29.50
2012,08,05,16,59,29.60
2012,08,05,17,00,29.60
2012,08,05,17,01,29.70
2012,08,05,17,02,29.80
2012,08,05,17,03,29.80
2012,08,05,17,04,29.90
2012,08,05,17,05,29.90
2012,08,05,17,06,29.90
2012,08,05,17,07,29.90
2012,08,05,17,08,29.90
2012,08,05,17,09,29.80
2012,08,05,17,10,29.80
2012,08,05,17,11,29.70
2012,08,05,17,12,29.70
2012,08,05,17,13,29.70
2012,08,05,17,14,29.70
2012,08,05,17,15,29.70
2012,08,05,17,16,29.70
2012,08,05,17,17,29.70
2012,08,05,17,18,29.70
2012,08,05,17,19,29.70